This is the latest recevied weather packets stored in our database for station/object DH9SB-6. If no packets are shown the sender has not sent any weather packets the latest 10 day(s).
| Time | Temp. | Humidity | Pressure | Rain* | Wind** | Luminosity | Snow |
|---|---|---|---|---|---|---|---|
| 1787936555 | 24.44° C | 61% | - | 0 mm | - | - | - |
| 1787935978 | 24.44° C | 60% | - | 0 mm | - | - | - |
| 1787935066 | 25° C | 60% | - | 0 mm | - | - | - |
| 1787934490 | 25° C | 60% | - | 0 mm | - | - | - |
| 1787933867 | 25° C | 60% | - | 0 mm | - | - | - |
| 1787933579 | 25° C | 58% | - | 0 mm | - | - | - |
| 1787933002 | 25.56° C | 60% | - | 0 mm | - | - | - |
| 1787932377 | 25.56° C | 60% | - | 0 mm | - | - | - |
| 1787931755 | 25.56° C | 59% | - | 0 mm | - | - | - |
| 1787931178 | 25.56° C | 60% | - | 0 mm | - | - | - |
| 1787930554 | 26.11° C | 61% | - | 0 mm | - | - | - |
| 1787929978 | 25.56° C | 61% | - | 0 mm | - | - | - |
| 1787929355 | 25.56° C | 61% | - | 0 mm | - | - | - |
| 1787928779 | 25.56° C | 62% | - | 0 mm | - | - | - |
| 1787927867 | 25.56° C | 63% | - | 0 mm | - | - | - |
| 1787927243 | 26.11° C | 63% | - | 0 mm | - | - | - |
| 1787926666 | 27.22° C | 63% | - | 0 mm | - | - | - |
| 1787925754 | 26.11° C | 66% | - | 0 mm | - | - | - |
| 1787925178 | 25° C | 66% | - | 0 mm | - | - | - |
| 1787924266 | 25.56° C | 68% | - | 0 mm | - | - | - |
| 1787923642 | 25° C | 71% | - | 0 mm | - | - | - |
| 1787923115 | 25° C | 70% | - | 0 mm | - | - | - |
| 1787922443 | 25° C | 71% | - | 0 mm | - | - | - |
| 1787921867 | 24.44° C | 71% | - | 0 mm | - | - | - |
| 1787921579 | 23.89° C | 72% | - | 0 mm | - | - | - |
* Rain latest hour (hover to see other rain measurements)
** Current wind speed in m/s (hover to see current wind gust speed)